Jackson, KY

9:31 AM EST on November 21, 2019 (GMT -0500)
Carroll

Weather History for KJKL - September, 2019

Change the Weather History Date:

Sunday, September 22, 2019

  Actual Average Record
Temperature  
Mean Temperature 79 °F 66 °F  
Max Temperature 92 °F 76 °F 92 °F (2019)
Min Temperature 65 °F 56 °F 38 °F (1983)
Degree Days  
Heating Degree Days 0 3  
Month to date heating degree days 0 21  
Since 1 July heating degree days 0 23  
Cooling Degree Days 14 3  
Month to date cooling degree days 274 122  
Year to date cooling degree days 1411 1100  
Growing Degree Days 26 (Base 50)    
Moisture  
Dew Point 58 °F    
Average Humidity 60    
Maximum Humidity 87    
Minimum Humidity 32    
Precipitation  
Precipitation 0.00 in 0.12 in 1.96 in (1989)
Month to date precipitation 0.00 2.52  
Year to date precipitation 39.46 36.07  
Snow  
Snow 0.00 in 0.00 in - ()
Month to date snowfall 0.0 0.0  
Since 1 July snowfall 0.0 0.0  
Since 1 September snowfall 0.0 0.0  
Snow Depth 0.00 in    
Sea Level Pressure  
Sea Level Pressure 30.11 in    
Wind  
Wind Speed 2 mph (SSW)    
Max Wind Speed 9 mph    
Max Gust Speed 18 mph    
Visibility 10 miles    
Events      
T = Trace of Precipitation, MM = Missing Value Source: NWS Daily Summary

Daily Weather History Graph

Daily Weather History Graph

Search for Another Location

Airport or City:

Astronomy

Sep. 22, 2019 Rise Set
Actual Time 7:20 AM EDT 7:30 PM EDT
Civil Twilight 6:54 AM EDT 7:56 PM EDT
Nautical Twilight 6:24 AM EDT 8:27 PM EDT
Astronomical Twilight 5:53 AM EDT 8:58 PM EDT
Moon 12:16 AM EDT (9/22) 3:17 PM EDT (9/22)
Length of Visible Light 13h 01m
Length of Day
12h 09m
Last Quarter, 44% of the Moon is Illuminated
Sep 22
Last Quarter
Sep 28
New
Oct 5
First Quarter
Oct 13
Full
Oct 21
Last Quarter

Hourly Weather History & Observations

Time (EDT) Temp. Heat Index Dew Point Humidity Pressure Visibility Wind Dir Wind Speed Gust Speed Precip Events Conditions
12:53 AM 75.0 °F - 59.0 °F 57% 30.17 in 10.0 mi Calm Calm - N/A   Clear
1:53 AM 72.0 °F - 59.0 °F 64% 30.17 in 10.0 mi Calm Calm - N/A   Clear
2:53 AM 70.0 °F - 60.1 °F 71% 30.16 in 10.0 mi SSW 3.5 mph - N/A   Scattered Clouds
3:53 AM 70.0 °F - 60.1 °F 71% 30.15 in 10.0 mi Calm Calm - N/A   Scattered Clouds
4:53 AM 69.1 °F - 60.1 °F 73% 30.16 in 10.0 mi Calm Calm - N/A   Scattered Clouds
5:53 AM 68.0 °F - 61.0 °F 78% 30.17 in 10.0 mi Calm Calm - N/A   Mostly Cloudy
6:53 AM 66.9 °F - 61.0 °F 81% 30.17 in 10.0 mi Calm Calm - N/A   Clear
7:53 AM 64.9 °F - 61.0 °F 87% 30.19 in 10.0 mi Calm Calm - N/A   Clear
8:53 AM 69.1 °F - 62.1 °F 78% 30.19 in 10.0 mi Calm Calm - N/A   Clear
9:53 AM 73.0 °F - 61.0 °F 66% 30.19 in 10.0 mi Calm Calm - N/A   Clear
10:53 AM 78.1 °F - 60.1 °F 54% 30.18 in 10.0 mi Variable 3.5 mph - N/A   Clear
11:53 AM 84.9 °F 83.9 °F 57.0 °F 38% 30.16 in 10.0 mi North - - N/A   Clear
12:53 PM 84.9 °F 83.9 °F 57.0 °F 38% 30.14 in 10.0 mi Variable 4.6 mph - N/A   Clear
1:53 PM 86.0 °F 84.9 °F 57.0 °F 37% 30.11 in 10.0 mi North - - N/A   Clear
2:53 PM 89.1 °F 87.7 °F 57.0 °F 34% 30.07 in 10.0 mi Variable 5.8 mph - N/A   Partly Cloudy
3:53 PM 89.1 °F 87.1 °F 55.0 °F 31% 30.04 in 10.0 mi Variable 4.6 mph - N/A   Clear
4:53 PM 89.1 °F 87.3 °F 55.9 °F 32% 30.04 in 10.0 mi Variable 3.5 mph - N/A   Clear
5:53 PM 88.0 °F 86.1 °F 55.0 °F 32% 30.03 in 10.0 mi North - - N/A   Clear
6:53 PM 84.0 °F 83.0 °F 55.9 °F 38% 30.03 in 10.0 mi Variable 3.5 mph - N/A   Clear
7:53 PM 81.0 °F 81.0 °F 57.0 °F 44% 30.04 in 10.0 mi Variable 4.6 mph - N/A   Clear
8:53 PM 79.0 °F - 55.9 °F 45% 30.04 in 10.0 mi Variable 3.5 mph - N/A   Clear
9:53 PM 77.0 °F - 55.9 °F 48% 30.05 in 10.0 mi SSW 3.5 mph - N/A   Clear
10:53 PM 75.0 °F - 55.9 °F 51% 30.05 in 10.0 mi Calm Calm - N/A   Clear
11:53 PM 73.9 °F - 55.0 °F 52% 30.04 in 10.0 mi SSW 3.5 mph - N/A   Clear